sat.trackr.live / text

‹ back to catalog

STARLINK-6362

NORAD 57350 · 2023-099Y

PAYLOAD ACTIVE UNKNOWN

§ Identity

Operator
Country
US
Launch date
2023-07-16
Launch site
AFETR
Launch vehicle
Mass (kg)
RCS (m²)

Purposes: comms

External: N2YO · Heavens-Above · Gunter

§ Orbital elements

Epoch: 2026-05-25T02:27:06.610176Z

Period
94.27 min
Inclination
43.0013°
Eccentricity
0.0001260
Mean motion
15.27577908 rev/d
Perigee alt
482.2 km
Apogee alt
483.9 km
Semi-major
6,861.2 km
B*
1.7311e-5
RAAN
170.3170°
Arg perigee
285.8477°
Mean anomaly
74.2235°
Rev number
15,787

§ Raw data

STARLINK-63621 57350U 23099Y   26145.10215984  .00000214  00000+0  17311-4 0  99942 57350  43.0013 170.3170 0001260 285.8477  74.2235 15.27577908157874

JSON: /api/v1/satellites/57350 · /tle

For live sub-satellite position, see the globe view (requires WebGL).

§ Visibility from observer

Set your observer location to see the next 7 days of passes ≥ 10°. The values pass through the URL so the page stays shareable.

No JS? Fill the form by hand. The geolocation button needs JavaScript.